Location: Buckenweiler
(49.0667°N, 10.2500°E)
Time: 18:52:14
(UTC+00:00)

NOAA 12 - Pass Details

Date: 17 April 2026
Orbit: 792 x 813 km, 98.6° (Epoch: 12 May)

Event Time Altitude Azimuth Distance (km) Brightness Sun altitude
Rises 03:15:39 0° 26° (NNE) 3,329 8.3 -11.1°
Reaches altitude 10° 03:18:38 10° 43° (NE) 2,389 7.9 -10.7°
Maximum altitude 03:22:29 20° 90° (E) 1,765 6.8 -10.1°
Drops below altitude 10° 03:26:19 10° 138° (SE) 2,366 6.7 -9.6°
Sets 03:29:13 0° 154° (SSE) 3,287 7.3 -9.1°
